Lancaster, CA

9:42 PM PDT on March 22, 2017 (GMT -0700)
Gen Fox

Weather History for KWJF - June, 2012

Change the Weather History Date:

Monday, June 4, 2012

  Actual Average Record
Temperature  
Mean Temperature 70 °F 73 °F  
Max Temperature 82 °F 88 °F 103 °F (1996)
Min Temperature 57 °F 58 °F 44 °F (1966)
Degree Days  
Heating Degree Days 0    
Month to date heating degree days 0  
Since 1 June heating degree days 0  
Since 1 July heating degree days 3050  
Cooling Degree Days 5    
Month to date cooling degree days 58  
Year to date cooling degree days 320  
Since 1 June cooling degree days 58  
Growing Degree Days 20 (Base 50)    
Moisture  
Dew Point 49 °F    
Average Humidity 50    
Maximum Humidity 69    
Minimum Humidity 30    
Precipitation  
Precipitation 0.00 in 0.00 in 0.09 in (1972)
Month to date precipitation 0.00 0.01  
Year to date precipitation 1.70 4.87  
Since 1 July precipitation 3.05  
Snow  
Snow 0.00 in - 0.00 in ()
Month to date snowfall 0.0  
Since 1 June snowfall 0.0  
Since 1 July snowfall 0.0  
Snow Depth 0.00 in    
Sea Level Pressure  
Sea Level Pressure 29.85 in    
Wind  
Wind Speed 20 mph (WSW)    
Max Wind Speed 32 mph    
Max Gust Speed 52 mph    
Visibility 10 miles    
Events      
T = Trace of Precipitation, MM = Missing Value Source: NWS Daily Summary

Daily Weather History Graph

Daily Weather History Graph

Search for Another Location

Airport or City:

Trip Planner

Search our weather history database for the weather conditions in past years. The results will help you decide how hot, cold, wet, or windy it might be!

Date:

Astronomy

Jun. 04, 2012 Rise Set
Actual Time 5:39 AM PDT 8:03 PM PDT
Civil Twilight 5:10 AM PDT 8:32 PM PDT
Nautical Twilight 4:34 AM PDT 9:08 PM PDT
Astronomical Twilight 3:55 AM PDT 9:47 PM PDT
Moon 8:37 PM PDT (6/4) 5:51 AM PDT (6/4)
Length of Visible Light 15h 21m
Length of Day
14h 23m
Full, 100% of the Moon is Illuminated
Jun 4
Full
Jun 11
Last Quarter
Jun 19
New
Jun 26
First Quarter
Jul 3
Full

Hourly Weather History & Observations

Time (PDT) Temp. Dew Point Humidity Pressure Visibility Wind Dir Wind Speed Gust Speed Precip Events Conditions
12:56 AM 69.1 °F 50.0 °F 51% 29.81 in 10.0 mi SW 12.7 mph - N/A   Clear
1:56 AM 70.0 °F 48.0 °F 46% 29.80 in 10.0 mi WSW 11.5 mph - N/A   Clear
2:56 AM 69.1 °F 46.9 °F 45% 29.80 in 10.0 mi WSW 11.5 mph - N/A   Clear
3:56 AM 68.0 °F 46.9 °F 47% 29.80 in 10.0 mi WSW 16.1 mph - N/A   Clear
4:56 AM 66.0 °F 46.9 °F 50% 29.81 in 10.0 mi WSW 17.3 mph - N/A   Clear
5:56 AM 66.9 °F 45.0 °F 45% 29.82 in 10.0 mi West 16.1 mph 21.9 mph N/A   Clear
6:56 AM 69.1 °F 48.0 °F 47% 29.83 in 10.0 mi WSW 16.1 mph - N/A   Clear
7:56 AM 73.0 °F 48.9 °F 42% 29.84 in 10.0 mi WSW 16.1 mph - N/A   Clear
8:56 AM 75.0 °F 48.0 °F 38% 29.85 in 10.0 mi WSW 18.4 mph 26.5 mph N/A   Clear
9:56 AM 77.0 °F 48.9 °F 37% 29.86 in 10.0 mi SW 19.6 mph - N/A   Clear
10:56 AM 81.0 °F 48.0 °F 31% 29.84 in 10.0 mi WSW 24.2 mph 31.1 mph N/A   Clear
11:56 AM 81.0 °F 46.9 °F 30% 29.85 in 10.0 mi SW 23.0 mph 33.4 mph N/A   Clear
12:56 PM 79.0 °F 48.9 °F 35% 29.86 in 10.0 mi SSW 26.5 mph 33.4 mph N/A   Clear
1:56 PM 79.0 °F 50.0 °F 36% 29.86 in 10.0 mi SW 21.9 mph 32.2 mph N/A   Clear
2:56 PM 79.0 °F 50.0 °F 36% 29.85 in 10.0 mi SW 23.0 mph 35.7 mph N/A   Clear
3:56 PM 75.9 °F 51.1 °F 42% 29.85 in 10.0 mi SW 27.6 mph 36.8 mph N/A   Clear
4:56 PM 75.9 °F 52.0 °F 43% 29.85 in 10.0 mi SW 26.5 mph 33.4 mph N/A   Clear
5:56 PM 73.9 °F 52.0 °F 46% 29.86 in 10.0 mi SW 21.9 mph 29.9 mph N/A   Clear
6:56 PM 70.0 °F 52.0 °F 53% 29.86 in 10.0 mi WSW 21.9 mph 27.6 mph N/A   Clear
7:56 PM 66.9 °F 50.0 °F 54% 29.88 in 10.0 mi WSW 18.4 mph 27.6 mph N/A   Overcast
8:56 PM 66.0 °F 48.9 °F 54% 29.89 in 10.0 mi West 26.5 mph 32.2 mph N/A   Clear
9:56 PM 64.0 °F 51.1 °F 63% 29.91 in 10.0 mi West 21.9 mph 31.1 mph N/A   Clear
10:56 PM 60.1 °F 50.0 °F 69% 29.93 in 10.0 mi West 27.6 mph 36.8 mph N/A   Clear
11:56 PM 57.0 °F 46.9 °F 69% 29.95 in 10.0 mi West 23.0 mph 31.1 mph N/A   Clear